Zurück zum Katalog

GAOFEN 6

AktivWissenschaftSSO
NORAD 43484·PAYLOAD·🇨🇳 China

Gestartet Jun 2, 2018 von Jiuquan Satellite Launch Center

Loading…

Nächste Überflüge (nächste 24 Stunden)

TLE

AktuellSource: Space-Track

Epoche: Sep 14, 2026, 14:21 UTC

1 43484U 18048A   26257.59844554  .00000174  00000-0  32542-4 0  9992
2 43484  98.0886 320.4198 0009399 240.4156 119.6117 14.76438642446581

Verfolge GAOFEN 6 in Echtzeit mit AllMySat

Download on the App Store